Location: Newark
(20.0000°S, 47.0000°E)
Time: 16:31:33
(UTC+00:00)

OTV 5 (USA 277) - Pass Details

Date: 26 June 2019
Orbit: 299 x 335 km, 54.5° (Epoch: 13 July)

Event Time Altitude Azimuth Distance (km) Brightness Sun altitude
Rises 13:31:32 0° 235° (SW) 2,053 ? 9.8°
Reaches altitude 10° 13:33:50 10° 255° (WSW) 1,224 ? 9.3°
Drops below altitude 10° 13:37:48 10° 349° (N) 1,226 ? 8.5°
Enters shadow 15:45:33 -63° 60° (ENE) 11,689 ? -19.0°
Exits shadow 15:49:43 -68° 77° (ENE) 12,150 ? -19.9°
Maximum altitude 02:38:54 66° 54° (NE) 335 ? -11.3°
